Flag Weather past 2 weeks in Vincennes, Indiana, U.S.A.

Now
28 °F

Overcast.


Feels Like: 14 °F
Forecast: 24 / 33 °F
Wind: 21 mph from Northwest

Location: Lawrenceville-Vincennes International Airport

Current Time: Nov 27, 2014 at 12:54:17 PM

Latest Report: Nov 27, 2014 at 11:53 AM


Visibility: 4 mi

Pressure: 30.45 "Hg

Humidity: 78%

Dew point: 22 °F

Location of VincennesLocation

Historic Weather in Vincennes — Graph

°F

Vincennes temperature yesterday

Maximum temperature yesterday: 39 °F (at 2:53 PM)
Minimum temperature yesterday: 24 °F (at 4:53 AM)
Average temperature yesterday: 31 °F

Past Weeks' High & Low Weather Summary

 TemperatureHumidityPressure
High62 °F (Nov 22, 3:53 PM)100% (Nov 16, 3:53 PM)30.53 "Hg (Nov 16, 3:53 PM)
Low13 °F (Nov 18, 7:53 AM)35% (Nov 21, 3:53 PM)29.20 "Hg (Nov 24, 5:53 AM)
Average32 °F73%30.16 "Hg
* Reported Nov 12 11:53 AM — Nov 27 11:53 AM, Vincennes, Weather by CustomWeather, © 2014

Note: Actual official high and low records may vary slightly from our data, if they occured in-between our weather recording intervals... More about our weather records

Advertising

Vincennes weather history for previous 24 hours

 ConditionsComfort  
Time TempWeatherWind HumidityBarometerVisibility
11:53 AM
Nov 27
28 °FOvercast.21 mph78%30.45 "Hg4 mi
10:53 AM27 °FOvercast.14 mph81%30.45 "Hg4 mi
9:53 AM26 °FIce fog.9 mph84%30.42 "Hg5 mi
8:53 AM25 °FIce fog.16 mph85%30.40 "Hg4 mi
7:53 AM25 °FIce fog.10 mph85%30.37 "Hg4 mi
6:53 AM28 °FIce fog.13 mph85%30.33 "Hg6 mi
5:53 AM29 °FOvercast.15 mph82%30.30 "Hg7 mi
4:53 AM29 °FOvercast.9 mph89%30.27 "Hg7 mi
3:53 AM29 °FIce fog.8 mph93%30.23 "Hg6 mi
2:53 AM31 °FIce fog.10 mph89%30.20 "Hg5 mi
1:53 AM31 °FIce fog.13 mph89%30.18 "Hg5 mi
12:53 AM31 °FLight snow. Ice fog.10 mph96%30.15 "Hg2 mi
11:53 PM
Nov 26
31 °FLight snow. Ice fog.12 mph96%30.13 "Hg1 mi
10:53 PM32 °FLight snow. Ice fog.7 mph96%30.11 "Hg2 mi
9:53 PM32 °FLight snow. Ice fog.8 mph96%30.09 "Hg1 mi
8:53 PM32 °FLight snow. Ice fog.8 mph96%30.09 "Hg1 mi
7:53 PM33 °FLight snow. Fog.6 mph92%30.09 "Hg2 mi
6:53 PM36 °FOvercast.6 mph75%30.08 "Hg8 mi
5:53 PM36 °FOvercast.8 mph75%30.06 "Hg8 mi
4:53 PM38 °FOvercast.6 mph70%30.06 "Hg8 mi
3:53 PM39 °FScattered clouds.3 mph62%30.05 "Hg10 mi
2:53 PM39 °FSunny.5 mph62%30.06 "Hg10 mi
1:53 PM37 °FSunny.8 mph70%30.07 "Hg10 mi
12:53 PM35 °FPassing clouds.5 mph75%30.10 "Hg8 mi
Weather by CustomWeather, © 2014

See weather overviewHow to use our weather pages